When you browse on this site, cookies collect data to enhance your experience and personalize the content and advertising you see.
Visit our Privacy Policy to learn more. By continuing to use the site, you agree to this use of cookies and data.
  • In Österreich
  • Länderverzeichnis
  • Für 7 Tage
  • Wassertemperatur
  • Wetterkarte
  • News
  • Widgets
  • user-avatar
    Anmelden

    Stündliche Wetter Pachuquilla

    Heute, 18 August, Sonntag

    Zeit Temperatur Niederschläge Wind Luftdruck Luftfeuchtigkeit
    00:00 +13°C° 0 mm 1 m/S 570 mmHg 86%
    01:00 +12°C° 0 mm 0 m/S 570 mmHg 86%
    02:00 +12°C° 0 mm 0 m/S 570 mmHg 86%
    03:00 +11°C° 0 mm 0 m/S 569 mmHg 86%
    04:00 +11°C° 0 mm 0 m/S 569 mmHg 85%
    05:00 +11°C° 0 mm 0 m/S 569 mmHg 85%
    06:00 +13°C° 0 mm 0 m/S 571 mmHg 78%
    07:00 +15°C° 0 mm 0 m/S 572 mmHg 71%
    08:00 +17°C° 0 mm 0 m/S 573 mmHg 64%
    09:00 +21°C° 0 mm 1 m/S 574 mmHg 56%
    10:00 +21°C° 0 mm 2 m/S 574 mmHg 48%
    11:00 +24°C° 0 mm 2 m/S 575 mmHg 41%
    12:00 +24°C° 0 mm 3 m/S 575 mmHg 42%
    13:00 +25°C° 0 mm 4 m/S 574 mmHg 43%
    14:00 +25°C° 0 mm 5 m/S 574 mmHg 44%
    15:00 +22°C° 0.1 mm 4 m/S 573 mmHg 55%
    16:00 +21°C° 0.1 mm 4 m/S 572 mmHg 65%
    17:00 +19°C° 0.1 mm 4 m/S 571 mmHg 75%
    18:00 +18°C° 0.2 mm 4 m/S 571 mmHg 81%
    19:00 +16°C° 0.2 mm 3 m/S 571 mmHg 87%
    20:00 +15°C° 0.2 mm 2 m/S 571 mmHg 93%
    21:00 +14°C° 0 mm 2 m/S 571 mmHg 93%
    22:00 +14°C° 0 mm 2 m/S 571 mmHg 94%
    23:00 +14°C° 0 mm 2 m/S 571 mmHg 94%

    Morgen, 19 August, Montag

    Zeit Temperatur Niederschläge Wind Luftdruck Luftfeuchtigkeit
    00:00 +13°C° 0 mm 1 m/S 570 mmHg 94%
    01:00 +13°C° 0 mm 1 m/S 570 mmHg 94%
    02:00 +13°C° 0 mm 1 m/S 570 mmHg 94%
    03:00 +13°C° 0 mm 1 m/S 570 mmHg 95%
    04:00 +13°C° 0 mm 1 m/S 570 mmHg 95%
    05:00 +13°C° 0 mm 1 m/S 570 mmHg 95%
    06:00 +14°C° 0 mm 1 m/S 571 mmHg 89%
    07:00 +15°C° 0 mm 2 m/S 572 mmHg 83%
    08:00 +16°C° 0 mm 2 m/S 572 mmHg 77%
    09:00 +18°C° 0 mm 3 m/S 573 mmHg 69%
    10:00 +19°C° 0 mm 4 m/S 574 mmHg 62%
    11:00 +21°C° 0 mm 5 m/S 574 mmHg 54%
    12:00 +21°C° 0.1 mm 5 m/S 574 mmHg 56%
    13:00 +21°C° 0.1 mm 6 m/S 573 mmHg 57%
    14:00 +21°C° 0.1 mm 7 m/S 573 mmHg 58%
    15:00 +19°C° 0 mm 6 m/S 572 mmHg 63%
    16:00 +17°C° 0 mm 6 m/S 572 mmHg 67%
    17:00 +16°C° 0 mm 5 m/S 571 mmHg 72%
    18:00 +15°C° 0 mm 4 m/S 571 mmHg 79%
    19:00 +13°C° 0 mm 3 m/S 571 mmHg 86%
    20:00 +12°C° 0 mm 3 m/S 571 mmHg 92%
    21:00 +13°C° 0 mm 2 m/S 571 mmHg 92%
    22:00 +12°C° 0 mm 2 m/S 571 mmHg 91%
    23:00 +10°C° 0 mm 2 m/S 571 mmHg 91%

    übermorgen, 20 August, Dienstag

    Zeit Temperatur Niederschläge Wind Luftdruck Luftfeuchtigkeit
    00:00 +10°C° 0 mm 2 m/S 570 mmHg 91%
    01:00 +11°C° 0 mm 1 m/S 570 mmHg 90%
    02:00 +10°C° 0 mm 1 m/S 569 mmHg 90%
    03:00 +10°C° 0 mm 1 m/S 569 mmHg 90%
    04:00 +9°C° 0 mm 1 m/S 569 mmHg 91%
    05:00 +9°C° 0 mm 1 m/S 569 mmHg 91%
    06:00 +11°C° 0 mm 1 m/S 570 mmHg 83%
    07:00 +13°C° 0 mm 2 m/S 572 mmHg 75%
    08:00 +15°C° 0 mm 2 m/S 573 mmHg 67%
    09:00 +17°C° 0 mm 3 m/S 573 mmHg 63%
    10:00 +18°C° 0 mm 4 m/S 574 mmHg 58%
    11:00 +20°C° 0 mm 5 m/S 575 mmHg 53%
    12:00 +20°C° 0.1 mm 5 m/S 574 mmHg 56%
    13:00 +20°C° 0.1 mm 6 m/S 574 mmHg 58%
    14:00 +20°C° 0.1 mm 6 m/S 573 mmHg 61%
    15:00 +19°C° 0.1 mm 6 m/S 573 mmHg 66%
    16:00 +16°C° 0.1 mm 5 m/S 572 mmHg 71%
    17:00 +15°C° 0.1 mm 5 m/S 572 mmHg 76%
    18:00 +14°C° 0.1 mm 4 m/S 572 mmHg 82%
    19:00 +13°C° 0.1 mm 3 m/S 572 mmHg 87%
    20:00 +12°C° 0.1 mm 3 m/S 572 mmHg 93%
    21:00 +13°C° 0.1 mm 2 m/S 572 mmHg 93%
    22:00 +13°C° 0.1 mm 2 m/S 572 mmHg 93%
    23:00 +12°C° 0.1 mm 1 m/S 572 mmHg 94%

    21 August, Mittwoch

    Zeit Temperatur Niederschläge Wind Luftdruck Luftfeuchtigkeit
    00:00 +12°C° 0 mm 1 m/S 572 mmHg 93%
    01:00 +12°C° 0 mm 1 m/S 571 mmHg 93%
    02:00 +12°C° 0 mm 1 m/S 571 mmHg 92%
    03:00 +12°C° 0 mm 1 m/S 571 mmHg 92%
    04:00 +11°C° 0 mm 1 m/S 571 mmHg 92%
    05:00 +11°C° 0 mm 1 m/S 571 mmHg 92%
    06:00 +12°C° 0 mm 1 m/S 571 mmHg 87%
    07:00 +13°C° 0 mm 1 m/S 572 mmHg 81%
    08:00 +14°C° 0 mm 2 m/S 573 mmHg 76%
    09:00 +16°C° 0 mm 2 m/S 573 mmHg 68%
    10:00 +18°C° 0 mm 3 m/S 574 mmHg 61%
    11:00 +20°C° 0 mm 3 m/S 574 mmHg 53%
    12:00 +20°C° 0.2 mm 4 m/S 574 mmHg 56%
    13:00 +20°C° 0.2 mm 4 m/S 573 mmHg 60%
    14:00 +20°C° 0.2 mm 5 m/S 573 mmHg 63%
    15:00 +19°C° 0.3 mm 4 m/S 572 mmHg 68%
    16:00 +17°C° 0.3 mm 4 m/S 572 mmHg 73%
    17:00 +15°C° 0.3 mm 4 m/S 571 mmHg 78%
    18:00 +14°C° 0 mm 3 m/S 571 mmHg 83%
    19:00 +13°C° 0 mm 3 m/S 571 mmHg 87%
    20:00 +13°C° 0 mm 2 m/S 571 mmHg 92%
    21:00 +13°C° 0 mm 2 m/S 571 mmHg 92%
    22:00 +13°C° 0 mm 1 m/S 571 mmHg 92%
    23:00 +13°C° 0 mm 1 m/S 572 mmHg 92%

    22 August, Donnerstag

    Zeit Temperatur Niederschläge Wind Luftdruck Luftfeuchtigkeit
    00:00 +12°C° 0 mm 1 m/S 571 mmHg 91%
    01:00 +12°C° 0 mm 1 m/S 571 mmHg 91%
    02:00 +12°C° 0 mm 1 m/S 570 mmHg 91%
    03:00 +12°C° 0 mm 1 m/S 570 mmHg 91%
    04:00 +11°C° 0 mm 1 m/S 570 mmHg 91%
    05:00 +10°C° 0 mm 0 m/S 570 mmHg 91%
    06:00 +12°C° 0 mm 0 m/S 571 mmHg 84%
    07:00 +14°C° 0 mm 0 m/S 573 mmHg 77%
    08:00 +16°C° 0 mm 0 m/S 574 mmHg 70%
    09:00 +19°C° 0.4 mm 1 m/S 574 mmHg 67%
    10:00 +20°C° 0.4 mm 1 m/S 574 mmHg 64%
    11:00 +21°C° 0.4 mm 1 m/S 575 mmHg 61%
    12:00 +21°C° 1.3 mm 1 m/S 574 mmHg 61%
    13:00 +22°C° 1.3 mm 1 m/S 574 mmHg 61%
    14:00 +22°C° 1.3 mm 1 m/S 573 mmHg 62%
    15:00 +21°C° 1.8 mm 1 m/S 573 mmHg 68%
    16:00 +19°C° 1.8 mm 2 m/S 572 mmHg 74%
    17:00 +18°C° 1.8 mm 2 m/S 572 mmHg 81%
    18:00 +17°C° 3 mm 2 m/S 572 mmHg 85%
    19:00 +16°C° 3 mm 1 m/S 572 mmHg 89%
    20:00 +15°C° 3 mm 1 m/S 572 mmHg 93%
    21:00 +14°C° 3.2 mm 1 m/S 572 mmHg 92%
    22:00 +14°C° 3.2 mm 1 m/S 572 mmHg 92%
    23:00 +14°C° 3.2 mm 1 m/S 572 mmHg 92%

    23 August, Freitag

    Zeit Temperatur Niederschläge Wind Luftdruck Luftfeuchtigkeit
    00:00 +14°C° 1.2 mm 1 m/S 572 mmHg 92%
    01:00 +14°C° 1.2 mm 1 m/S 572 mmHg 92%
    02:00 +14°C° 1.2 mm 1 m/S 571 mmHg 92%
    03:00 +14°C° 0.4 mm 1 m/S 572 mmHg 92%
    04:00 +14°C° 0.4 mm 1 m/S 572 mmHg 91%
    05:00 +14°C° 0.4 mm 1 m/S 572 mmHg 91%
    06:00 +15°C° 0 mm 1 m/S 572 mmHg 86%
    07:00 +16°C° 0 mm 1 m/S 573 mmHg 81%
    08:00 +18°C° 0 mm 1 m/S 573 mmHg 77%
    09:00 +19°C° 0.4 mm 1 m/S 574 mmHg 71%
    10:00 +21°C° 0.4 mm 1 m/S 574 mmHg 65%
    11:00 +22°C° 0.4 mm 1 m/S 575 mmHg 59%
    12:00 +22°C° 1.9 mm 1 m/S 574 mmHg 64%
    13:00 +20°C° 1.9 mm 2 m/S 573 mmHg 68%
    14:00 +19°C° 1.9 mm 3 m/S 572 mmHg 72%
    15:00 +18°C° 0.9 mm 2 m/S 572 mmHg 75%
    16:00 +17°C° 0.9 mm 2 m/S 571 mmHg 79%
    17:00 +16°C° 0.9 mm 2 m/S 571 mmHg 83%
    18:00 +16°C° 0.3 mm 2 m/S 571 mmHg 84%
    19:00 +15°C° 0.3 mm 2 m/S 572 mmHg 85%
    20:00 +15°C° 0.3 mm 2 m/S 572 mmHg 86%
    21:00 +14°C° 0 mm 1 m/S 572 mmHg 86%
    22:00 +14°C° 0 mm 1 m/S 572 mmHg 86%
    23:00 +14°C° 0 mm 1 m/S 572 mmHg 86%
    Mehr zeigen